Terug naar catalogus

CZ-4 DEB

ActiefPO
NORAD 35270·DEBRIS·🇨🇳 China

Gelanceerd Sep 8, 2004 vanaf Taiyuan Satellite Launch Center

Loading…

Volgende Passages (komende 24 uur)

TLE

VersSource: Space-Track

Epoch: Sep 13, 2026, 03:28 UTC

1 35270U 04035N   26256.14483085  .00044506  00000-0  12412-2 0  9994
2 35270  97.8743 210.9359 0045574 177.2137 182.9368 15.35561829165047

Volg CZ-4 DEB in realtime met AllMySat

Download on the App Store